Index of /20260427/WXO-DD/model_rdps/10km/18/055
Name Last modified Size Description
Parent Directory -
20260427T18Z_MSC_RDPS_AbsoluteVorticity_IsbL-0250_RLatLon0.09_PT055H.grib2 2026-04-27 20:56 518K
20260427T18Z_MSC_RDPS_AbsoluteVorticity_IsbL-0500_RLatLon0.09_PT055H.grib2 2026-04-27 20:56 573K
20260427T18Z_MSC_RDPS_AbsoluteVorticity_IsbL-0700_RLatLon0.09_PT055H.grib2 2026-04-27 20:56 625K
20260427T18Z_MSC_RDPS_AbsoluteVorticity_IsbL-0850_RLatLon0.09_PT055H.grib2 2026-04-27 20:56 767K
20260427T18Z_MSC_RDPS_AirTemp_AGL-120m_RLatLon0.09_PT055H.grib2 2026-04-27 20:56 384K
20260427T18Z_MSC_RDPS_AirTemp_AGL-2m_RLatLon0.09_PT055H.grib2 2026-04-27 20:56 617K
20260427T18Z_MSC_RDPS_AirTemp_AGL-40m_RLatLon0.09_PT055H.grib2 2026-04-27 20:56 394K
20260427T18Z_MSC_RDPS_AirTemp_AGL-80m_RLatLon0.09_PT055H.grib2 2026-04-27 20:56 387K
20260427T18Z_MSC_RDPS_AirTemp_IsbL-0001_RLatLon0.09_PT055H.grib2 2026-04-27 20:56 304K
20260427T18Z_MSC_RDPS_AirTemp_IsbL-0005_RLatLon0.09_PT055H.grib2 2026-04-27 20:56 290K
20260427T18Z_MSC_RDPS_AirTemp_IsbL-0010_RLatLon0.09_PT055H.grib2 2026-04-27 20:56 302K
20260427T18Z_MSC_RDPS_AirTemp_IsbL-0020_RLatLon0.09_PT055H.grib2 2026-04-27 20:56 316K
20260427T18Z_MSC_RDPS_AirTemp_IsbL-0030_RLatLon0.09_PT055H.grib2 2026-04-27 20:56 340K
20260427T18Z_MSC_RDPS_AirTemp_IsbL-0050_RLatLon0.09_PT055H.grib2 2026-04-27 20:56 314K
20260427T18Z_MSC_RDPS_AirTemp_IsbL-0100_RLatLon0.09_PT055H.grib2 2026-04-27 20:56 431K
20260427T18Z_MSC_RDPS_AirTemp_IsbL-0150_RLatLon0.09_PT055H.grib2 2026-04-27 20:56 430K
20260427T18Z_MSC_RDPS_AirTemp_IsbL-0175_RLatLon0.09_PT055H.grib2 2026-04-27 20:56 418K
20260427T18Z_MSC_RDPS_AirTemp_IsbL-0200_RLatLon0.09_PT055H.grib2 2026-04-27 20:56 423K
20260427T18Z_MSC_RDPS_AirTemp_IsbL-0225_RLatLon0.09_PT055H.grib2 2026-04-27 20:56 423K
20260427T18Z_MSC_RDPS_AirTemp_IsbL-0250_RLatLon0.09_PT055H.grib2 2026-04-27 20:56 435K
20260427T18Z_MSC_RDPS_AirTemp_IsbL-0275_RLatLon0.09_PT055H.grib2 2026-04-27 20:56 412K
20260427T18Z_MSC_RDPS_AirTemp_IsbL-0300_RLatLon0.09_PT055H.grib2 2026-04-27 20:56 418K
20260427T18Z_MSC_RDPS_AirTemp_IsbL-0350_RLatLon0.09_PT055H.grib2 2026-04-27 20:56 429K
20260427T18Z_MSC_RDPS_AirTemp_IsbL-0400_RLatLon0.09_PT055H.grib2 2026-04-27 20:56 396K
20260427T18Z_MSC_RDPS_AirTemp_IsbL-0450_RLatLon0.09_PT055H.grib2 2026-04-27 20:56 403K
20260427T18Z_MSC_RDPS_AirTemp_IsbL-0500_RLatLon0.09_PT055H.grib2 2026-04-27 20:56 413K
20260427T18Z_MSC_RDPS_AirTemp_IsbL-0550_RLatLon0.09_PT055H.grib2 2026-04-27 20:56 430K
20260427T18Z_MSC_RDPS_AirTemp_IsbL-0600_RLatLon0.09_PT055H.grib2 2026-04-27 20:56 451K
20260427T18Z_MSC_RDPS_AirTemp_IsbL-0650_RLatLon0.09_PT055H.grib2 2026-04-27 20:56 465K
20260427T18Z_MSC_RDPS_AirTemp_IsbL-0700_RLatLon0.09_PT055H.grib2 2026-04-27 20:56 380K
20260427T18Z_MSC_RDPS_AirTemp_IsbL-0750_RLatLon0.09_PT055H.grib2 2026-04-27 20:56 409K
20260427T18Z_MSC_RDPS_AirTemp_IsbL-0800_RLatLon0.09_PT055H.grib2 2026-04-27 20:56 445K
20260427T18Z_MSC_RDPS_AirTemp_IsbL-0850_RLatLon0.09_PT055H.grib2 2026-04-27 20:56 490K
20260427T18Z_MSC_RDPS_AirTemp_IsbL-0875_RLatLon0.09_PT055H.grib2 2026-04-27 20:56 510K
20260427T18Z_MSC_RDPS_AirTemp_IsbL-0900_RLatLon0.09_PT055H.grib2 2026-04-27 20:56 519K
20260427T18Z_MSC_RDPS_AirTemp_IsbL-0925_RLatLon0.09_PT055H.grib2 2026-04-27 20:56 517K
20260427T18Z_MSC_RDPS_AirTemp_IsbL-0950_RLatLon0.09_PT055H.grib2 2026-04-27 20:56 519K
20260427T18Z_MSC_RDPS_AirTemp_IsbL-0970_RLatLon0.09_PT055H.grib2 2026-04-27 20:56 509K
20260427T18Z_MSC_RDPS_AirTemp_IsbL-0985_RLatLon0.09_PT055H.grib2 2026-04-27 20:56 500K
20260427T18Z_MSC_RDPS_AirTemp_IsbL-1000_RLatLon0.09_PT055H.grib2 2026-04-27 20:56 487K
20260427T18Z_MSC_RDPS_AirTemp_IsbL-1015_RLatLon0.09_PT055H.grib2 2026-04-27 20:56 497K
20260427T18Z_MSC_RDPS_Albedo_Sfc_RLatLon0.09_PT055H.grib2 2026-04-27 20:56 160K
20260427T18Z_MSC_RDPS_CAPE_Sfc_RLatLon0.09_PT055H.grib2 2026-04-27 20:56 1.7M
20260427T18Z_MSC_RDPS_CIN_Sfc_RLatLon0.09_PT055H.grib2 2026-04-27 20:56 1.2M
20260427T18Z_MSC_RDPS_CloudWater_EAtm_RLatLon0.09_PT055H.grib2 2026-04-27 20:56 222K
20260427T18Z_MSC_RDPS_ConvectivePrecip-Accum_Sfc_RLatLon0.09_PT055H.grib2 2026-04-27 20:56 1.1M
20260427T18Z_MSC_RDPS_DewPointDepression_AGL-2m_RLatLon0.09_PT055H.grib2 2026-04-27 20:56 404K
20260427T18Z_MSC_RDPS_DewPointDepression_IsbL-0001_RLatLon0.09_PT055H.grib2 2026-04-27 20:56 193
20260427T18Z_MSC_RDPS_DewPointDepression_IsbL-0005_RLatLon0.09_PT055H.grib2 2026-04-27 20:56 193
20260427T18Z_MSC_RDPS_DewPointDepression_IsbL-0010_RLatLon0.09_PT055H.grib2 2026-04-27 20:56 193
20260427T18Z_MSC_RDPS_DewPointDepression_IsbL-0020_RLatLon0.09_PT055H.grib2 2026-04-27 20:56 193
20260427T18Z_MSC_RDPS_DewPointDepression_IsbL-0030_RLatLon0.09_PT055H.grib2 2026-04-27 20:56 193
20260427T18Z_MSC_RDPS_DewPointDepression_IsbL-0050_RLatLon0.09_PT055H.grib2 2026-04-27 20:56 82K
20260427T18Z_MSC_RDPS_DewPointDepression_IsbL-0100_RLatLon0.09_PT055H.grib2 2026-04-27 20:56 130K
20260427T18Z_MSC_RDPS_DewPointDepression_IsbL-0150_RLatLon0.09_PT055H.grib2 2026-04-27 20:56 152K
20260427T18Z_MSC_RDPS_DewPointDepression_IsbL-0175_RLatLon0.09_PT055H.grib2 2026-04-27 20:56 181K
20260427T18Z_MSC_RDPS_DewPointDepression_IsbL-0200_RLatLon0.09_PT055H.grib2 2026-04-27 20:56 220K
20260427T18Z_MSC_RDPS_DewPointDepression_IsbL-0225_RLatLon0.09_PT055H.grib2 2026-04-27 20:56 267K
20260427T18Z_MSC_RDPS_DewPointDepression_IsbL-0250_RLatLon0.09_PT055H.grib2 2026-04-27 20:56 306K
20260427T18Z_MSC_RDPS_DewPointDepression_IsbL-0275_RLatLon0.09_PT055H.grib2 2026-04-27 20:56 312K
20260427T18Z_MSC_RDPS_DewPointDepression_IsbL-0300_RLatLon0.09_PT055H.grib2 2026-04-27 20:56 332K
20260427T18Z_MSC_RDPS_DewPointDepression_IsbL-0350_RLatLon0.09_PT055H.grib2 2026-04-27 20:56 333K
20260427T18Z_MSC_RDPS_DewPointDepression_IsbL-0400_RLatLon0.09_PT055H.grib2 2026-04-27 20:56 341K
20260427T18Z_MSC_RDPS_DewPointDepression_IsbL-0450_RLatLon0.09_PT055H.grib2 2026-04-27 20:56 349K
20260427T18Z_MSC_RDPS_DewPointDepression_IsbL-0500_RLatLon0.09_PT055H.grib2 2026-04-27 20:56 357K
20260427T18Z_MSC_RDPS_DewPointDepression_IsbL-0550_RLatLon0.09_PT055H.grib2 2026-04-27 20:56 369K
20260427T18Z_MSC_RDPS_DewPointDepression_IsbL-0600_RLatLon0.09_PT055H.grib2 2026-04-27 20:56 384K
20260427T18Z_MSC_RDPS_DewPointDepression_IsbL-0650_RLatLon0.09_PT055H.grib2 2026-04-27 20:56 393K
20260427T18Z_MSC_RDPS_DewPointDepression_IsbL-0700_RLatLon0.09_PT055H.grib2 2026-04-27 20:56 400K
20260427T18Z_MSC_RDPS_DewPointDepression_IsbL-0750_RLatLon0.09_PT055H.grib2 2026-04-27 20:56 419K
20260427T18Z_MSC_RDPS_DewPointDepression_IsbL-0800_RLatLon0.09_PT055H.grib2 2026-04-27 20:56 443K
20260427T18Z_MSC_RDPS_DewPointDepression_IsbL-0850_RLatLon0.09_PT055H.grib2 2026-04-27 20:56 466K
20260427T18Z_MSC_RDPS_DewPointDepression_IsbL-0875_RLatLon0.09_PT055H.grib2 2026-04-27 20:56 470K
20260427T18Z_MSC_RDPS_DewPointDepression_IsbL-0900_RLatLon0.09_PT055H.grib2 2026-04-27 20:56 464K
20260427T18Z_MSC_RDPS_DewPointDepression_IsbL-0925_RLatLon0.09_PT055H.grib2 2026-04-27 20:56 450K
20260427T18Z_MSC_RDPS_DewPointDepression_IsbL-0950_RLatLon0.09_PT055H.grib2 2026-04-27 20:56 439K
20260427T18Z_MSC_RDPS_DewPointDepression_IsbL-0970_RLatLon0.09_PT055H.grib2 2026-04-27 20:56 428K
20260427T18Z_MSC_RDPS_DewPointDepression_IsbL-0985_RLatLon0.09_PT055H.grib2 2026-04-27 20:56 422K
20260427T18Z_MSC_RDPS_DewPointDepression_IsbL-1000_RLatLon0.09_PT055H.grib2 2026-04-27 20:56 417K
20260427T18Z_MSC_RDPS_DewPointDepression_IsbL-1015_RLatLon0.09_PT055H.grib2 2026-04-27 20:56 406K
20260427T18Z_MSC_RDPS_DewPoint_AGL-2m_RLatLon0.09_PT055H.grib2 2026-04-27 20:56 390K
20260427T18Z_MSC_RDPS_DownwardLongwaveRadiationFlux-Accum_Sfc_RLatLon0.09_PT055H.grib2 2026-04-27 20:56 385K
20260427T18Z_MSC_RDPS_DownwardShortwaveRadiationFlux-Accum_NTAtm_RLatLon0.09_PT055H.grib2 2026-04-27 20:56 114K
20260427T18Z_MSC_RDPS_DownwardShortwaveRadiationFlux-Accum_Sfc_RLatLon0.09_PT055H.grib2 2026-04-27 20:56 588K
20260427T18Z_MSC_RDPS_FreezingRain-Accum1h_Sfc_RLatLon0.09_PT055H.grib2 2026-04-27 20:56 15K
20260427T18Z_MSC_RDPS_FreezingRain-Accum_Sfc_RLatLon0.09_PT055H.grib2 2026-04-27 20:56 171K
20260427T18Z_MSC_RDPS_GeopotentialHeight_IsbL-0001_RLatLon0.09_PT055H.grib2 2026-04-27 20:56 239K
20260427T18Z_MSC_RDPS_GeopotentialHeight_IsbL-0005_RLatLon0.09_PT055H.grib2 2026-04-27 20:56 308K
20260427T18Z_MSC_RDPS_GeopotentialHeight_IsbL-0010_RLatLon0.09_PT055H.grib2 2026-04-27 20:56 304K
20260427T18Z_MSC_RDPS_GeopotentialHeight_IsbL-0020_RLatLon0.09_PT055H.grib2 2026-04-27 20:56 303K
20260427T18Z_MSC_RDPS_GeopotentialHeight_IsbL-0030_RLatLon0.09_PT055H.grib2 2026-04-27 20:56 304K
20260427T18Z_MSC_RDPS_GeopotentialHeight_IsbL-0050_RLatLon0.09_PT055H.grib2 2026-04-27 20:56 339K
20260427T18Z_MSC_RDPS_GeopotentialHeight_IsbL-0100_RLatLon0.09_PT055H.grib2 2026-04-27 20:56 286K
20260427T18Z_MSC_RDPS_GeopotentialHeight_IsbL-0150_RLatLon0.09_PT055H.grib2 2026-04-27 20:56 231K
20260427T18Z_MSC_RDPS_GeopotentialHeight_IsbL-0175_RLatLon0.09_PT055H.grib2 2026-04-27 20:56 265K
20260427T18Z_MSC_RDPS_GeopotentialHeight_IsbL-0200_RLatLon0.09_PT055H.grib2 2026-04-27 20:56 267K
20260427T18Z_MSC_RDPS_GeopotentialHeight_IsbL-0225_RLatLon0.09_PT055H.grib2 2026-04-27 20:56 268K
20260427T18Z_MSC_RDPS_GeopotentialHeight_IsbL-0250_RLatLon0.09_PT055H.grib2 2026-04-27 20:56 269K
20260427T18Z_MSC_RDPS_GeopotentialHeight_IsbL-0275_RLatLon0.09_PT055H.grib2 2026-04-27 20:56 268K
20260427T18Z_MSC_RDPS_GeopotentialHeight_IsbL-0300_RLatLon0.09_PT055H.grib2 2026-04-27 20:56 268K
20260427T18Z_MSC_RDPS_GeopotentialHeight_IsbL-0350_RLatLon0.09_PT055H.grib2 2026-04-27 20:56 234K
20260427T18Z_MSC_RDPS_GeopotentialHeight_IsbL-0400_RLatLon0.09_PT055H.grib2 2026-04-27 20:56 230K
20260427T18Z_MSC_RDPS_GeopotentialHeight_IsbL-0450_RLatLon0.09_PT055H.grib2 2026-04-27 20:56 297K
20260427T18Z_MSC_RDPS_GeopotentialHeight_IsbL-0500_RLatLon0.09_PT055H.grib2 2026-04-27 20:56 293K
20260427T18Z_MSC_RDPS_GeopotentialHeight_IsbL-0550_RLatLon0.09_PT055H.grib2 2026-04-27 20:56 290K
20260427T18Z_MSC_RDPS_GeopotentialHeight_IsbL-0600_RLatLon0.09_PT055H.grib2 2026-04-27 20:56 287K
20260427T18Z_MSC_RDPS_GeopotentialHeight_IsbL-0650_RLatLon0.09_PT055H.grib2 2026-04-27 20:56 256K
20260427T18Z_MSC_RDPS_GeopotentialHeight_IsbL-0700_RLatLon0.09_PT055H.grib2 2026-04-27 20:56 335K
20260427T18Z_MSC_RDPS_GeopotentialHeight_IsbL-0750_RLatLon0.09_PT055H.grib2 2026-04-27 20:56 337K
20260427T18Z_MSC_RDPS_GeopotentialHeight_IsbL-0800_RLatLon0.09_PT055H.grib2 2026-04-27 20:56 342K
20260427T18Z_MSC_RDPS_GeopotentialHeight_IsbL-0850_RLatLon0.09_PT055H.grib2 2026-04-27 20:56 382K
20260427T18Z_MSC_RDPS_GeopotentialHeight_IsbL-0875_RLatLon0.09_PT055H.grib2 2026-04-27 20:56 386K
20260427T18Z_MSC_RDPS_GeopotentialHeight_IsbL-0900_RLatLon0.09_PT055H.grib2 2026-04-27 20:56 390K
20260427T18Z_MSC_RDPS_GeopotentialHeight_IsbL-0925_RLatLon0.09_PT055H.grib2 2026-04-27 20:56 393K
20260427T18Z_MSC_RDPS_GeopotentialHeight_IsbL-0950_RLatLon0.09_PT055H.grib2 2026-04-27 20:56 396K
20260427T18Z_MSC_RDPS_GeopotentialHeight_IsbL-0970_RLatLon0.09_PT055H.grib2 2026-04-27 20:56 401K
20260427T18Z_MSC_RDPS_GeopotentialHeight_IsbL-0985_RLatLon0.09_PT055H.grib2 2026-04-27 20:56 409K
20260427T18Z_MSC_RDPS_GeopotentialHeight_IsbL-1000_RLatLon0.09_PT055H.grib2 2026-04-27 20:56 421K
20260427T18Z_MSC_RDPS_GeopotentialHeight_IsbL-1015_RLatLon0.09_PT055H.grib2 2026-04-27 20:56 436K
20260427T18Z_MSC_RDPS_Humidex_Sfc_RLatLon0.09_PT055H.grib2 2026-04-27 20:56 2.4M
20260427T18Z_MSC_RDPS_IcePellets-Accum1h_Sfc_RLatLon0.09_PT055H.grib2 2026-04-27 20:56 3.4K
20260427T18Z_MSC_RDPS_IcePellets-Accum_Sfc_RLatLon0.09_PT055H.grib2 2026-04-27 20:56 32K
20260427T18Z_MSC_RDPS_KIndex_Sfc_RLatLon0.09_PT055H.grib2 2026-04-27 20:56 2.5M
20260427T18Z_MSC_RDPS_LatentHeatNetFlux_Sfc_RLatLon0.09_PT055H.grib2 2026-04-27 20:56 428K
20260427T18Z_MSC_RDPS_LiftedIndex-MU-VT_IsbL-0500_RLatLon0.09_PT055H.grib2 2026-04-27 20:56 2.4M
20260427T18Z_MSC_RDPS_NetLongwaveRadiationFlux-Accum_Sfc_RLatLon0.09_PT055H.grib2 2026-04-27 20:56 569K
20260427T18Z_MSC_RDPS_NetShortwaveRadiationFlux-Accum_Sfc_RLatLon0.09_PT055H.grib2 2026-04-27 20:56 590K
20260427T18Z_MSC_RDPS_PlanetaryBoundaryLayerHeight_Sfc_RLatLon0.09_PT055H.grib2 2026-04-27 20:56 1.1M
20260427T18Z_MSC_RDPS_Precip-Accum1h_Sfc_RLatLon0.09_PT055H.grib2 2026-04-27 20:56 1.2M
20260427T18Z_MSC_RDPS_Precip-Accum_Sfc_RLatLon0.09_PT055H.grib2 2026-04-27 20:56 1.9M
20260427T18Z_MSC_RDPS_PrecipRate_Sfc_RLatLon0.09_PT055H.grib2 2026-04-27 20:56 159K
20260427T18Z_MSC_RDPS_PrecipType-Instant_Sfc_RLatLon0.09_PT055H.grib2 2026-04-27 20:56 560K
20260427T18Z_MSC_RDPS_Pressure-Trend3h_Sfc_RLatLon0.09_PT055H.grib2 2026-04-27 20:56 1.2M
20260427T18Z_MSC_RDPS_Pressure_MSL_RLatLon0.09_PT055H.grib2 2026-04-27 20:56 324K
20260427T18Z_MSC_RDPS_Pressure_PVU-1.5_RLatLon0.09_PT055H.grib2 2026-04-27 20:56 2.5M
20260427T18Z_MSC_RDPS_Pressure_PVU-1_RLatLon0.09_PT055H.grib2 2026-04-27 20:56 2.4M
20260427T18Z_MSC_RDPS_Pressure_PVU-2_RLatLon0.09_PT055H.grib2 2026-04-27 20:56 2.4M
20260427T18Z_MSC_RDPS_Pressure_Sfc_RLatLon0.09_PT055H.grib2 2026-04-27 20:56 499K
20260427T18Z_MSC_RDPS_RadiativeTemp_Sfc_RLatLon0.09_PT055H.grib2 2026-04-27 20:56 305K
20260427T18Z_MSC_RDPS_Rain-Accum1h_Sfc_RLatLon0.09_PT055H.grib2 2026-04-27 20:56 514K
20260427T18Z_MSC_RDPS_Rain-Accum_Sfc_RLatLon0.09_PT055H.grib2 2026-04-27 20:56 1.5M
20260427T18Z_MSC_RDPS_RelativeHumidity_AGL-2m_RLatLon0.09_PT055H.grib2 2026-04-27 20:56 1.0M
20260427T18Z_MSC_RDPS_RelativeHumidity_IsbL-0010_RLatLon0.09_PT055H.grib2 2026-04-27 20:56 623K
20260427T18Z_MSC_RDPS_RelativeHumidity_IsbL-0020_RLatLon0.09_PT055H.grib2 2026-04-27 20:56 672K
20260427T18Z_MSC_RDPS_RelativeHumidity_IsbL-0030_RLatLon0.09_PT055H.grib2 2026-04-27 20:56 605K
20260427T18Z_MSC_RDPS_RelativeHumidity_IsbL-0050_RLatLon0.09_PT055H.grib2 2026-04-27 20:56 320K
20260427T18Z_MSC_RDPS_RelativeHumidity_IsbL-0100_RLatLon0.09_PT055H.grib2 2026-04-27 20:56 286K
20260427T18Z_MSC_RDPS_RelativeHumidity_IsbL-0150_RLatLon0.09_PT055H.grib2 2026-04-27 20:56 419K
20260427T18Z_MSC_RDPS_RelativeHumidity_IsbL-0175_RLatLon0.09_PT055H.grib2 2026-04-27 20:56 488K
20260427T18Z_MSC_RDPS_RelativeHumidity_IsbL-0200_RLatLon0.09_PT055H.grib2 2026-04-27 20:56 563K
20260427T18Z_MSC_RDPS_RelativeHumidity_IsbL-0225_RLatLon0.09_PT055H.grib2 2026-04-27 20:56 634K
20260427T18Z_MSC_RDPS_RelativeHumidity_IsbL-0250_RLatLon0.09_PT055H.grib2 2026-04-27 20:56 709K
20260427T18Z_MSC_RDPS_RelativeHumidity_IsbL-0275_RLatLon0.09_PT055H.grib2 2026-04-27 20:56 732K
20260427T18Z_MSC_RDPS_RelativeHumidity_IsbL-0300_RLatLon0.09_PT055H.grib2 2026-04-27 20:56 776K
20260427T18Z_MSC_RDPS_RelativeHumidity_IsbL-0350_RLatLon0.09_PT055H.grib2 2026-04-27 20:56 789K
20260427T18Z_MSC_RDPS_RelativeHumidity_IsbL-0400_RLatLon0.09_PT055H.grib2 2026-04-27 20:56 799K
20260427T18Z_MSC_RDPS_RelativeHumidity_IsbL-0450_RLatLon0.09_PT055H.grib2 2026-04-27 20:56 804K
20260427T18Z_MSC_RDPS_RelativeHumidity_IsbL-0500_RLatLon0.09_PT055H.grib2 2026-04-27 20:56 810K
20260427T18Z_MSC_RDPS_RelativeHumidity_IsbL-0550_RLatLon0.09_PT055H.grib2 2026-04-27 20:56 828K
20260427T18Z_MSC_RDPS_RelativeHumidity_IsbL-0600_RLatLon0.09_PT055H.grib2 2026-04-27 20:56 853K
20260427T18Z_MSC_RDPS_RelativeHumidity_IsbL-0650_RLatLon0.09_PT055H.grib2 2026-04-27 20:56 867K
20260427T18Z_MSC_RDPS_RelativeHumidity_IsbL-0700_RLatLon0.09_PT055H.grib2 2026-04-27 20:56 885K
20260427T18Z_MSC_RDPS_RelativeHumidity_IsbL-0750_RLatLon0.09_PT055H.grib2 2026-04-27 20:56 924K
20260427T18Z_MSC_RDPS_RelativeHumidity_IsbL-0800_RLatLon0.09_PT055H.grib2 2026-04-27 20:56 1.0M
20260427T18Z_MSC_RDPS_RelativeHumidity_IsbL-0850_RLatLon0.09_PT055H.grib2 2026-04-27 20:56 1.0M
20260427T18Z_MSC_RDPS_RelativeHumidity_IsbL-0875_RLatLon0.09_PT055H.grib2 2026-04-27 20:56 1.0M
20260427T18Z_MSC_RDPS_RelativeHumidity_IsbL-0900_RLatLon0.09_PT055H.grib2 2026-04-27 20:56 1.1M
20260427T18Z_MSC_RDPS_RelativeHumidity_IsbL-0925_RLatLon0.09_PT055H.grib2 2026-04-27 20:56 1.1M
20260427T18Z_MSC_RDPS_RelativeHumidity_IsbL-0950_RLatLon0.09_PT055H.grib2 2026-04-27 20:56 1.0M
20260427T18Z_MSC_RDPS_RelativeHumidity_IsbL-0970_RLatLon0.09_PT055H.grib2 2026-04-27 20:56 1.0M
20260427T18Z_MSC_RDPS_RelativeHumidity_IsbL-0985_RLatLon0.09_PT055H.grib2 2026-04-27 20:56 1.0M
20260427T18Z_MSC_RDPS_RelativeHumidity_IsbL-1000_RLatLon0.09_PT055H.grib2 2026-04-27 20:56 1.0M
20260427T18Z_MSC_RDPS_RelativeHumidity_IsbL-1015_RLatLon0.09_PT055H.grib2 2026-04-27 20:56 1.0M
20260427T18Z_MSC_RDPS_Runoff-Accum_Sfc_RLatLon0.09_PT055H.grib2 2026-04-27 20:56 75K
20260427T18Z_MSC_RDPS_SWEATIndex_Sfc_RLatLon0.09_PT055H.grib2 2026-04-27 20:56 2.4M
20260427T18Z_MSC_RDPS_SeeingIndex_EAtm_RLatLon0.09_PT055H.grib2 2026-04-27 20:56 1.0M
20260427T18Z_MSC_RDPS_SensibleHeatNetFlux_Sfc_RLatLon0.09_PT055H.grib2 2026-04-27 20:56 296K
20260427T18Z_MSC_RDPS_ShowalterIndex_IsbL-0500_RLatLon0.09_PT055H.grib2 2026-04-27 20:56 2.6M
20260427T18Z_MSC_RDPS_SkyTransparencyIndex_EAtm_RLatLon0.09_PT055H.grib2 2026-04-27 20:56 685K
20260427T18Z_MSC_RDPS_Snow-Accum1h_Sfc_RLatLon0.09_PT055H.grib2 2026-04-27 20:56 460K
20260427T18Z_MSC_RDPS_Snow-Accum_Sfc_RLatLon0.09_PT055H.grib2 2026-04-27 20:56 785K
20260427T18Z_MSC_RDPS_SnowDensity_Sfc_RLatLon0.09_PT055H.grib2 2026-04-27 20:56 183K
20260427T18Z_MSC_RDPS_SnowDepth_Sfc_RLatLon0.09_PT055H.grib2 2026-04-27 20:56 692K
20260427T18Z_MSC_RDPS_SoilTemp_DBS-0to10cm_RLatLon0.09_PT055H.grib2 2026-04-27 20:56 241K
20260427T18Z_MSC_RDPS_SoilTemp_Sfc_RLatLon0.09_PT055H.grib2 2026-04-27 20:56 283K
20260427T18Z_MSC_RDPS_SoilVolumetricIceContent_Sfc_RLatLon0.09_PT055H.grib2 2026-04-27 20:56 165K
20260427T18Z_MSC_RDPS_SoilVolumetricWaterContent_DBS-0to10cm_RLatLon0.09_PT055H.grib2 2026-04-27 20:56 267K
20260427T18Z_MSC_RDPS_SoilVolumetricWaterContent_DBS-0to1cm_RLatLon0.09_PT055H.grib2 2026-04-27 20:56 337K
20260427T18Z_MSC_RDPS_SpecificHumidity_AGL-120m_RLatLon0.09_PT055H.grib2 2026-04-27 20:56 482K
20260427T18Z_MSC_RDPS_SpecificHumidity_AGL-2m_RLatLon0.09_PT055H.grib2 2026-04-27 20:56 649K
20260427T18Z_MSC_RDPS_SpecificHumidity_AGL-40m_RLatLon0.09_PT055H.grib2 2026-04-27 20:56 488K
20260427T18Z_MSC_RDPS_SpecificHumidity_AGL-80m_RLatLon0.09_PT055H.grib2 2026-04-27 20:56 483K
20260427T18Z_MSC_RDPS_SpecificHumidity_IsbL-0001_RLatLon0.09_PT055H.grib2 2026-04-27 20:56 351K
20260427T18Z_MSC_RDPS_SpecificHumidity_IsbL-0005_RLatLon0.09_PT055H.grib2 2026-04-27 20:56 356K
20260427T18Z_MSC_RDPS_SpecificHumidity_IsbL-0010_RLatLon0.09_PT055H.grib2 2026-04-27 20:56 395K
20260427T18Z_MSC_RDPS_SpecificHumidity_IsbL-0020_RLatLon0.09_PT055H.grib2 2026-04-27 20:56 382K
20260427T18Z_MSC_RDPS_SpecificHumidity_IsbL-0030_RLatLon0.09_PT055H.grib2 2026-04-27 20:56 474K
20260427T18Z_MSC_RDPS_SpecificHumidity_IsbL-0050_RLatLon0.09_PT055H.grib2 2026-04-27 20:56 453K
20260427T18Z_MSC_RDPS_SpecificHumidity_IsbL-0100_RLatLon0.09_PT055H.grib2 2026-04-27 20:56 384K
20260427T18Z_MSC_RDPS_SpecificHumidity_IsbL-0150_RLatLon0.09_PT055H.grib2 2026-04-27 20:56 485K
20260427T18Z_MSC_RDPS_SpecificHumidity_IsbL-0175_RLatLon0.09_PT055H.grib2 2026-04-27 20:56 445K
20260427T18Z_MSC_RDPS_SpecificHumidity_IsbL-0200_RLatLon0.09_PT055H.grib2 2026-04-27 20:56 462K
20260427T18Z_MSC_RDPS_SpecificHumidity_IsbL-0225_RLatLon0.09_PT055H.grib2 2026-04-27 20:56 465K
20260427T18Z_MSC_RDPS_SpecificHumidity_IsbL-0250_RLatLon0.09_PT055H.grib2 2026-04-27 20:56 573K
20260427T18Z_MSC_RDPS_SpecificHumidity_IsbL-0275_RLatLon0.09_PT055H.grib2 2026-04-27 20:56 483K
20260427T18Z_MSC_RDPS_SpecificHumidity_IsbL-0300_RLatLon0.09_PT055H.grib2 2026-04-27 20:56 458K
20260427T18Z_MSC_RDPS_SpecificHumidity_IsbL-0350_RLatLon0.09_PT055H.grib2 2026-04-27 20:56 446K
20260427T18Z_MSC_RDPS_SpecificHumidity_IsbL-0400_RLatLon0.09_PT055H.grib2 2026-04-27 20:56 524K
20260427T18Z_MSC_RDPS_SpecificHumidity_IsbL-0450_RLatLon0.09_PT055H.grib2 2026-04-27 20:56 575K
20260427T18Z_MSC_RDPS_SpecificHumidity_IsbL-0500_RLatLon0.09_PT055H.grib2 2026-04-27 20:56 512K
20260427T18Z_MSC_RDPS_SpecificHumidity_IsbL-0550_RLatLon0.09_PT055H.grib2 2026-04-27 20:56 587K
20260427T18Z_MSC_RDPS_SpecificHumidity_IsbL-0600_RLatLon0.09_PT055H.grib2 2026-04-27 20:56 647K
20260427T18Z_MSC_RDPS_SpecificHumidity_IsbL-0650_RLatLon0.09_PT055H.grib2 2026-04-27 20:56 567K
20260427T18Z_MSC_RDPS_SpecificHumidity_IsbL-0700_RLatLon0.09_PT055H.grib2 2026-04-27 20:56 607K
20260427T18Z_MSC_RDPS_SpecificHumidity_IsbL-0750_RLatLon0.09_PT055H.grib2 2026-04-27 20:56 659K
20260427T18Z_MSC_RDPS_SpecificHumidity_IsbL-0800_RLatLon0.09_PT055H.grib2 2026-04-27 20:56 731K
20260427T18Z_MSC_RDPS_SpecificHumidity_IsbL-0850_RLatLon0.09_PT055H.grib2 2026-04-27 20:56 798K
20260427T18Z_MSC_RDPS_SpecificHumidity_IsbL-0875_RLatLon0.09_PT055H.grib2 2026-04-27 20:56 825K
20260427T18Z_MSC_RDPS_SpecificHumidity_IsbL-0900_RLatLon0.09_PT055H.grib2 2026-04-27 20:56 701K
20260427T18Z_MSC_RDPS_SpecificHumidity_IsbL-0925_RLatLon0.09_PT055H.grib2 2026-04-27 20:56 702K
20260427T18Z_MSC_RDPS_SpecificHumidity_IsbL-0950_RLatLon0.09_PT055H.grib2 2026-04-27 20:56 701K
20260427T18Z_MSC_RDPS_SpecificHumidity_IsbL-0970_RLatLon0.09_PT055H.grib2 2026-04-27 20:56 687K
20260427T18Z_MSC_RDPS_SpecificHumidity_IsbL-0985_RLatLon0.09_PT055H.grib2 2026-04-27 20:56 677K
20260427T18Z_MSC_RDPS_SpecificHumidity_IsbL-1000_RLatLon0.09_PT055H.grib2 2026-04-27 20:56 669K
20260427T18Z_MSC_RDPS_SpecificHumidity_IsbL-1015_RLatLon0.09_PT055H.grib2 2026-04-27 20:56 659K
20260427T18Z_MSC_RDPS_SpecificHumidity_Sfc_RLatLon0.09_PT055H.grib2 2026-04-27 20:56 320K
20260427T18Z_MSC_RDPS_StormRelativeHelicity_EtaL-10000_RLatLon0.09_PT055H.grib2 2026-04-27 20:56 1.1M
20260427T18Z_MSC_RDPS_StormSeverityIndex_EtaL-10000_RLatLon0.09_PT055H.grib2 2026-04-27 20:56 1.1M
20260427T18Z_MSC_RDPS_Thickness_IsbL-0850to0700_RLatLon0.09_PT055H.grib2 2026-04-27 20:56 177K
20260427T18Z_MSC_RDPS_Thickness_IsbL-1000to0500_RLatLon0.09_PT055H.grib2 2026-04-27 20:56 200K
20260427T18Z_MSC_RDPS_Thickness_IsbL-1000to0850_RLatLon0.09_PT055H.grib2 2026-04-27 20:56 184K
20260427T18Z_MSC_RDPS_TotalCloudCover_Sfc_RLatLon0.09_PT055H.grib2 2026-04-27 20:56 644K
20260427T18Z_MSC_RDPS_TotalTotalsIndex_Sfc_RLatLon0.09_PT055H.grib2 2026-04-27 20:56 2.4M
20260427T18Z_MSC_RDPS_UVIndex-ClearSky_Sfc_RLatLon0.09_PT055H.grib2 2026-04-27 20:56 141K
20260427T18Z_MSC_RDPS_UVIndex_Sfc_RLatLon0.09_PT055H.grib2 2026-04-27 20:56 321K
20260427T18Z_MSC_RDPS_UpwardLongwaveRadiationFlux_NTAtm_RLatLon0.09_PT055H.grib2 2026-04-27 20:56 500K
20260427T18Z_MSC_RDPS_UpwardShortwaveRadiationFlux_NTAtm_RLatLon0.09_PT055H.grib2 2026-04-27 20:56 295K
20260427T18Z_MSC_RDPS_VerticalVelocity_IsbL-0250_RLatLon0.09_PT055H.grib2 2026-04-27 20:56 439K
20260427T18Z_MSC_RDPS_VerticalVelocity_IsbL-0500_RLatLon0.09_PT055H.grib2 2026-04-27 20:56 547K
20260427T18Z_MSC_RDPS_VerticalVelocity_IsbL-0700_RLatLon0.09_PT055H.grib2 2026-04-27 20:56 596K
20260427T18Z_MSC_RDPS_VerticalVelocity_IsbL-0850_RLatLon0.09_PT055H.grib2 2026-04-27 20:56 686K
20260427T18Z_MSC_RDPS_VerticalWindShear_EtaL-6500_RLatLon0.09_PT055H.grib2 2026-04-27 20:56 1.2M
20260427T18Z_MSC_RDPS_WindChill_Sfc_RLatLon0.09_PT055H.grib2 2026-04-27 20:56 1.1M
20260427T18Z_MSC_RDPS_WindDir_AGL-10m_RLatLon0.09_PT055H.grib2 2026-04-27 20:56 953K
20260427T18Z_MSC_RDPS_WindDir_AGL-120m_RLatLon0.09_PT055H.grib2 2026-04-27 20:56 601K
20260427T18Z_MSC_RDPS_WindDir_AGL-40m_RLatLon0.09_PT055H.grib2 2026-04-27 20:56 626K
20260427T18Z_MSC_RDPS_WindDir_AGL-80m_RLatLon0.09_PT055H.grib2 2026-04-27 20:56 611K
20260427T18Z_MSC_RDPS_WindDir_IsbL-0001_RLatLon0.09_PT055H.grib2 2026-04-27 20:56 311K
20260427T18Z_MSC_RDPS_WindDir_IsbL-0005_RLatLon0.09_PT055H.grib2 2026-04-27 20:56 355K
20260427T18Z_MSC_RDPS_WindDir_IsbL-0010_RLatLon0.09_PT055H.grib2 2026-04-27 20:56 383K
20260427T18Z_MSC_RDPS_WindDir_IsbL-0020_RLatLon0.09_PT055H.grib2 2026-04-27 20:56 403K
20260427T18Z_MSC_RDPS_WindDir_IsbL-0030_RLatLon0.09_PT055H.grib2 2026-04-27 20:56 417K
20260427T18Z_MSC_RDPS_WindDir_IsbL-0050_RLatLon0.09_PT055H.grib2 2026-04-27 20:56 429K
20260427T18Z_MSC_RDPS_WindDir_IsbL-0100_RLatLon0.09_PT055H.grib2 2026-04-27 20:56 434K
20260427T18Z_MSC_RDPS_WindDir_IsbL-0150_RLatLon0.09_PT055H.grib2 2026-04-27 20:56 419K
20260427T18Z_MSC_RDPS_WindDir_IsbL-0175_RLatLon0.09_PT055H.grib2 2026-04-27 20:56 443K
20260427T18Z_MSC_RDPS_WindDir_IsbL-0200_RLatLon0.09_PT055H.grib2 2026-04-27 20:56 455K
20260427T18Z_MSC_RDPS_WindDir_IsbL-0225_RLatLon0.09_PT055H.grib2 2026-04-27 20:56 460K
20260427T18Z_MSC_RDPS_WindDir_IsbL-0250_RLatLon0.09_PT055H.grib2 2026-04-27 20:56 462K
20260427T18Z_MSC_RDPS_WindDir_IsbL-0275_RLatLon0.09_PT055H.grib2 2026-04-27 20:56 483K
20260427T18Z_MSC_RDPS_WindDir_IsbL-0300_RLatLon0.09_PT055H.grib2 2026-04-27 20:56 477K
20260427T18Z_MSC_RDPS_WindDir_IsbL-0350_RLatLon0.09_PT055H.grib2 2026-04-27 20:56 498K
20260427T18Z_MSC_RDPS_WindDir_IsbL-0400_RLatLon0.09_PT055H.grib2 2026-04-27 20:56 516K
20260427T18Z_MSC_RDPS_WindDir_IsbL-0450_RLatLon0.09_PT055H.grib2 2026-04-27 20:56 529K
20260427T18Z_MSC_RDPS_WindDir_IsbL-0500_RLatLon0.09_PT055H.grib2 2026-04-27 20:56 547K
20260427T18Z_MSC_RDPS_WindDir_IsbL-0550_RLatLon0.09_PT055H.grib2 2026-04-27 20:56 572K
20260427T18Z_MSC_RDPS_WindDir_IsbL-0600_RLatLon0.09_PT055H.grib2 2026-04-27 20:56 602K
20260427T18Z_MSC_RDPS_WindDir_IsbL-0650_RLatLon0.09_PT055H.grib2 2026-04-27 20:56 644K
20260427T18Z_MSC_RDPS_WindDir_IsbL-0700_RLatLon0.09_PT055H.grib2 2026-04-27 20:56 686K
20260427T18Z_MSC_RDPS_WindDir_IsbL-0750_RLatLon0.09_PT055H.grib2 2026-04-27 20:56 732K
20260427T18Z_MSC_RDPS_WindDir_IsbL-0800_RLatLon0.09_PT055H.grib2 2026-04-27 20:56 793K
20260427T18Z_MSC_RDPS_WindDir_IsbL-0850_RLatLon0.09_PT055H.grib2 2026-04-27 20:56 858K
20260427T18Z_MSC_RDPS_WindDir_IsbL-0875_RLatLon0.09_PT055H.grib2 2026-04-27 20:56 881K
20260427T18Z_MSC_RDPS_WindDir_IsbL-0900_RLatLon0.09_PT055H.grib2 2026-04-27 20:56 897K
20260427T18Z_MSC_RDPS_WindDir_IsbL-0925_RLatLon0.09_PT055H.grib2 2026-04-27 20:56 906K
20260427T18Z_MSC_RDPS_WindDir_IsbL-0950_RLatLon0.09_PT055H.grib2 2026-04-27 20:56 904K
20260427T18Z_MSC_RDPS_WindDir_IsbL-0970_RLatLon0.09_PT055H.grib2 2026-04-27 20:56 912K
20260427T18Z_MSC_RDPS_WindDir_IsbL-0985_RLatLon0.09_PT055H.grib2 2026-04-27 20:56 919K
20260427T18Z_MSC_RDPS_WindDir_IsbL-1000_RLatLon0.09_PT055H.grib2 2026-04-27 20:56 932K
20260427T18Z_MSC_RDPS_WindDir_IsbL-1015_RLatLon0.09_PT055H.grib2 2026-04-27 20:56 947K
20260427T18Z_MSC_RDPS_WindGust-Max_AGL-10m_RLatLon0.09_PT055H.grib2 2026-04-27 20:56 1.0M
20260427T18Z_MSC_RDPS_WindGust-Min_AGL-10m_RLatLon0.09_PT055H.grib2 2026-04-27 20:56 968K
20260427T18Z_MSC_RDPS_WindGust_AGL-10m_RLatLon0.09_PT055H.grib2 2026-04-27 20:56 1.0M
20260427T18Z_MSC_RDPS_WindSpeed_AGL-10m_RLatLon0.09_PT055H.grib2 2026-04-27 20:56 827K
20260427T18Z_MSC_RDPS_WindSpeed_AGL-120m_RLatLon0.09_PT055H.grib2 2026-04-27 20:56 539K
20260427T18Z_MSC_RDPS_WindSpeed_AGL-40m_RLatLon0.09_PT055H.grib2 2026-04-27 20:56 531K
20260427T18Z_MSC_RDPS_WindSpeed_AGL-80m_RLatLon0.09_PT055H.grib2 2026-04-27 20:56 528K
20260427T18Z_MSC_RDPS_WindSpeed_IsbL-0001_RLatLon0.09_PT055H.grib2 2026-04-27 20:56 250K
20260427T18Z_MSC_RDPS_WindSpeed_IsbL-0005_RLatLon0.09_PT055H.grib2 2026-04-27 20:56 386K
20260427T18Z_MSC_RDPS_WindSpeed_IsbL-0010_RLatLon0.09_PT055H.grib2 2026-04-27 20:56 401K
20260427T18Z_MSC_RDPS_WindSpeed_IsbL-0020_RLatLon0.09_PT055H.grib2 2026-04-27 20:56 323K
20260427T18Z_MSC_RDPS_WindSpeed_IsbL-0030_RLatLon0.09_PT055H.grib2 2026-04-27 20:56 323K
20260427T18Z_MSC_RDPS_WindSpeed_IsbL-0050_RLatLon0.09_PT055H.grib2 2026-04-27 20:56 351K
20260427T18Z_MSC_RDPS_WindSpeed_IsbL-0100_RLatLon0.09_PT055H.grib2 2026-04-27 20:56 485K
20260427T18Z_MSC_RDPS_WindSpeed_IsbL-0150_RLatLon0.09_PT055H.grib2 2026-04-27 20:56 389K
20260427T18Z_MSC_RDPS_WindSpeed_IsbL-0175_RLatLon0.09_PT055H.grib2 2026-04-27 20:56 437K
20260427T18Z_MSC_RDPS_WindSpeed_IsbL-0200_RLatLon0.09_PT055H.grib2 2026-04-27 20:56 455K
20260427T18Z_MSC_RDPS_WindSpeed_IsbL-0225_RLatLon0.09_PT055H.grib2 2026-04-27 20:56 460K
20260427T18Z_MSC_RDPS_WindSpeed_IsbL-0250_RLatLon0.09_PT055H.grib2 2026-04-27 20:56 464K
20260427T18Z_MSC_RDPS_WindSpeed_IsbL-0275_RLatLon0.09_PT055H.grib2 2026-04-27 20:56 482K
20260427T18Z_MSC_RDPS_WindSpeed_IsbL-0300_RLatLon0.09_PT055H.grib2 2026-04-27 20:56 477K
20260427T18Z_MSC_RDPS_WindSpeed_IsbL-0350_RLatLon0.09_PT055H.grib2 2026-04-27 20:56 488K
20260427T18Z_MSC_RDPS_WindSpeed_IsbL-0400_RLatLon0.09_PT055H.grib2 2026-04-27 20:56 469K
20260427T18Z_MSC_RDPS_WindSpeed_IsbL-0450_RLatLon0.09_PT055H.grib2 2026-04-27 20:56 468K
20260427T18Z_MSC_RDPS_WindSpeed_IsbL-0500_RLatLon0.09_PT055H.grib2 2026-04-27 20:56 589K
20260427T18Z_MSC_RDPS_WindSpeed_IsbL-0550_RLatLon0.09_PT055H.grib2 2026-04-27 20:56 591K
20260427T18Z_MSC_RDPS_WindSpeed_IsbL-0600_RLatLon0.09_PT055H.grib2 2026-04-27 20:56 601K
20260427T18Z_MSC_RDPS_WindSpeed_IsbL-0650_RLatLon0.09_PT055H.grib2 2026-04-27 20:56 619K
20260427T18Z_MSC_RDPS_WindSpeed_IsbL-0700_RLatLon0.09_PT055H.grib2 2026-04-27 20:56 685K
20260427T18Z_MSC_RDPS_WindSpeed_IsbL-0750_RLatLon0.09_PT055H.grib2 2026-04-27 20:56 713K
20260427T18Z_MSC_RDPS_WindSpeed_IsbL-0800_RLatLon0.09_PT055H.grib2 2026-04-27 20:56 753K
20260427T18Z_MSC_RDPS_WindSpeed_IsbL-0850_RLatLon0.09_PT055H.grib2 2026-04-27 20:56 803K
20260427T18Z_MSC_RDPS_WindSpeed_IsbL-0875_RLatLon0.09_PT055H.grib2 2026-04-27 20:56 823K
20260427T18Z_MSC_RDPS_WindSpeed_IsbL-0900_RLatLon0.09_PT055H.grib2 2026-04-27 20:56 839K
20260427T18Z_MSC_RDPS_WindSpeed_IsbL-0925_RLatLon0.09_PT055H.grib2 2026-04-27 20:56 850K
20260427T18Z_MSC_RDPS_WindSpeed_IsbL-0950_RLatLon0.09_PT055H.grib2 2026-04-27 20:56 850K
20260427T18Z_MSC_RDPS_WindSpeed_IsbL-0970_RLatLon0.09_PT055H.grib2 2026-04-27 20:56 850K
20260427T18Z_MSC_RDPS_WindSpeed_IsbL-0985_RLatLon0.09_PT055H.grib2 2026-04-27 20:56 845K
20260427T18Z_MSC_RDPS_WindSpeed_IsbL-1000_RLatLon0.09_PT055H.grib2 2026-04-27 20:56 839K
20260427T18Z_MSC_RDPS_WindSpeed_IsbL-1015_RLatLon0.09_PT055H.grib2 2026-04-27 20:56 829K
20260427T18Z_MSC_RDPS_WindU_AGL-10m_RLatLon0.09_PT055H.grib2 2026-04-27 20:56 425K
20260427T18Z_MSC_RDPS_WindU_AGL-120m_RLatLon0.09_PT055H.grib2 2026-04-27 20:56 412K
20260427T18Z_MSC_RDPS_WindU_AGL-40m_RLatLon0.09_PT055H.grib2 2026-04-27 20:56 529K
20260427T18Z_MSC_RDPS_WindU_AGL-80m_RLatLon0.09_PT055H.grib2 2026-04-27 20:56 528K
20260427T18Z_MSC_RDPS_WindU_IsbL-0001_RLatLon0.09_PT055H.grib2 2026-04-27 20:56 292K
20260427T18Z_MSC_RDPS_WindU_IsbL-0005_RLatLon0.09_PT055H.grib2 2026-04-27 20:56 289K
20260427T18Z_MSC_RDPS_WindU_IsbL-0010_RLatLon0.09_PT055H.grib2 2026-04-27 20:56 340K
20260427T18Z_MSC_RDPS_WindU_IsbL-0020_RLatLon0.09_PT055H.grib2 2026-04-27 20:56 353K
20260427T18Z_MSC_RDPS_WindU_IsbL-0030_RLatLon0.09_PT055H.grib2 2026-04-27 20:56 314K
20260427T18Z_MSC_RDPS_WindU_IsbL-0050_RLatLon0.09_PT055H.grib2 2026-04-27 20:56 344K
20260427T18Z_MSC_RDPS_WindU_IsbL-0100_RLatLon0.09_PT055H.grib2 2026-04-27 20:56 343K
20260427T18Z_MSC_RDPS_WindU_IsbL-0150_RLatLon0.09_PT055H.grib2 2026-04-27 20:56 403K
20260427T18Z_MSC_RDPS_WindU_IsbL-0175_RLatLon0.09_PT055H.grib2 2026-04-27 20:56 428K
20260427T18Z_MSC_RDPS_WindU_IsbL-0200_RLatLon0.09_PT055H.grib2 2026-04-27 20:56 446K
20260427T18Z_MSC_RDPS_WindU_IsbL-0225_RLatLon0.09_PT055H.grib2 2026-04-27 20:56 451K
20260427T18Z_MSC_RDPS_WindU_IsbL-0250_RLatLon0.09_PT055H.grib2 2026-04-27 20:56 352K
20260427T18Z_MSC_RDPS_WindU_IsbL-0275_RLatLon0.09_PT055H.grib2 2026-04-27 20:56 367K
20260427T18Z_MSC_RDPS_WindU_IsbL-0300_RLatLon0.09_PT055H.grib2 2026-04-27 20:56 361K
20260427T18Z_MSC_RDPS_WindU_IsbL-0350_RLatLon0.09_PT055H.grib2 2026-04-27 20:56 370K
20260427T18Z_MSC_RDPS_WindU_IsbL-0400_RLatLon0.09_PT055H.grib2 2026-04-27 20:56 473K
20260427T18Z_MSC_RDPS_WindU_IsbL-0450_RLatLon0.09_PT055H.grib2 2026-04-27 20:56 472K
20260427T18Z_MSC_RDPS_WindU_IsbL-0500_RLatLon0.09_PT055H.grib2 2026-04-27 20:56 476K
20260427T18Z_MSC_RDPS_WindU_IsbL-0550_RLatLon0.09_PT055H.grib2 2026-04-27 20:56 460K
20260427T18Z_MSC_RDPS_WindU_IsbL-0600_RLatLon0.09_PT055H.grib2 2026-04-27 20:56 469K
20260427T18Z_MSC_RDPS_WindU_IsbL-0650_RLatLon0.09_PT055H.grib2 2026-04-27 20:56 487K
20260427T18Z_MSC_RDPS_WindU_IsbL-0700_RLatLon0.09_PT055H.grib2 2026-04-27 20:56 508K
20260427T18Z_MSC_RDPS_WindU_IsbL-0750_RLatLon0.09_PT055H.grib2 2026-04-27 20:56 534K
20260427T18Z_MSC_RDPS_WindU_IsbL-0800_RLatLon0.09_PT055H.grib2 2026-04-27 20:56 568K
20260427T18Z_MSC_RDPS_WindU_IsbL-0850_RLatLon0.09_PT055H.grib2 2026-04-27 20:56 613K
20260427T18Z_MSC_RDPS_WindU_IsbL-0875_RLatLon0.09_PT055H.grib2 2026-04-27 20:56 629K
20260427T18Z_MSC_RDPS_WindU_IsbL-0900_RLatLon0.09_PT055H.grib2 2026-04-27 20:56 641K
20260427T18Z_MSC_RDPS_WindU_IsbL-0925_RLatLon0.09_PT055H.grib2 2026-04-27 20:56 649K
20260427T18Z_MSC_RDPS_WindU_IsbL-0950_RLatLon0.09_PT055H.grib2 2026-04-27 20:56 646K
20260427T18Z_MSC_RDPS_WindU_IsbL-0970_RLatLon0.09_PT055H.grib2 2026-04-27 20:56 645K
20260427T18Z_MSC_RDPS_WindU_IsbL-0985_RLatLon0.09_PT055H.grib2 2026-04-27 20:56 780K
20260427T18Z_MSC_RDPS_WindU_IsbL-1000_RLatLon0.09_PT055H.grib2 2026-04-27 20:56 776K
20260427T18Z_MSC_RDPS_WindU_IsbL-1015_RLatLon0.09_PT055H.grib2 2026-04-27 20:56 768K
20260427T18Z_MSC_RDPS_WindV_AGL-10m_RLatLon0.09_PT055H.grib2 2026-04-27 20:56 427K
20260427T18Z_MSC_RDPS_WindV_AGL-120m_RLatLon0.09_PT055H.grib2 2026-04-27 20:56 526K
20260427T18Z_MSC_RDPS_WindV_AGL-40m_RLatLon0.09_PT055H.grib2 2026-04-27 20:56 529K
20260427T18Z_MSC_RDPS_WindV_AGL-80m_RLatLon0.09_PT055H.grib2 2026-04-27 20:56 527K
20260427T18Z_MSC_RDPS_WindV_IsbL-0001_RLatLon0.09_PT055H.grib2 2026-04-27 20:56 244K
20260427T18Z_MSC_RDPS_WindV_IsbL-0005_RLatLon0.09_PT055H.grib2 2026-04-27 20:56 288K
20260427T18Z_MSC_RDPS_WindV_IsbL-0010_RLatLon0.09_PT055H.grib2 2026-04-27 20:56 301K
20260427T18Z_MSC_RDPS_WindV_IsbL-0020_RLatLon0.09_PT055H.grib2 2026-04-27 20:56 317K
20260427T18Z_MSC_RDPS_WindV_IsbL-0030_RLatLon0.09_PT055H.grib2 2026-04-27 20:56 317K
20260427T18Z_MSC_RDPS_WindV_IsbL-0050_RLatLon0.09_PT055H.grib2 2026-04-27 20:56 345K
20260427T18Z_MSC_RDPS_WindV_IsbL-0100_RLatLon0.09_PT055H.grib2 2026-04-27 20:56 338K
20260427T18Z_MSC_RDPS_WindV_IsbL-0150_RLatLon0.09_PT055H.grib2 2026-04-27 20:56 402K
20260427T18Z_MSC_RDPS_WindV_IsbL-0175_RLatLon0.09_PT055H.grib2 2026-04-27 20:56 429K
20260427T18Z_MSC_RDPS_WindV_IsbL-0200_RLatLon0.09_PT055H.grib2 2026-04-27 20:56 345K
20260427T18Z_MSC_RDPS_WindV_IsbL-0225_RLatLon0.09_PT055H.grib2 2026-04-27 20:56 348K
20260427T18Z_MSC_RDPS_WindV_IsbL-0250_RLatLon0.09_PT055H.grib2 2026-04-27 20:56 375K
20260427T18Z_MSC_RDPS_WindV_IsbL-0275_RLatLon0.09_PT055H.grib2 2026-04-27 20:56 389K
20260427T18Z_MSC_RDPS_WindV_IsbL-0300_RLatLon0.09_PT055H.grib2 2026-04-27 20:56 384K
20260427T18Z_MSC_RDPS_WindV_IsbL-0350_RLatLon0.09_PT055H.grib2 2026-04-27 20:56 391K
20260427T18Z_MSC_RDPS_WindV_IsbL-0400_RLatLon0.09_PT055H.grib2 2026-04-27 20:56 368K
20260427T18Z_MSC_RDPS_WindV_IsbL-0450_RLatLon0.09_PT055H.grib2 2026-04-27 20:56 472K
20260427T18Z_MSC_RDPS_WindV_IsbL-0500_RLatLon0.09_PT055H.grib2 2026-04-27 20:56 473K
20260427T18Z_MSC_RDPS_WindV_IsbL-0550_RLatLon0.09_PT055H.grib2 2026-04-27 20:56 476K
20260427T18Z_MSC_RDPS_WindV_IsbL-0600_RLatLon0.09_PT055H.grib2 2026-04-27 20:56 485K
20260427T18Z_MSC_RDPS_WindV_IsbL-0650_RLatLon0.09_PT055H.grib2 2026-04-27 20:56 484K
20260427T18Z_MSC_RDPS_WindV_IsbL-0700_RLatLon0.09_PT055H.grib2 2026-04-27 20:56 505K
20260427T18Z_MSC_RDPS_WindV_IsbL-0750_RLatLon0.09_PT055H.grib2 2026-04-27 20:56 529K
20260427T18Z_MSC_RDPS_WindV_IsbL-0800_RLatLon0.09_PT055H.grib2 2026-04-27 20:56 564K
20260427T18Z_MSC_RDPS_WindV_IsbL-0850_RLatLon0.09_PT055H.grib2 2026-04-27 20:56 608K
20260427T18Z_MSC_RDPS_WindV_IsbL-0875_RLatLon0.09_PT055H.grib2 2026-04-27 20:56 760K
20260427T18Z_MSC_RDPS_WindV_IsbL-0900_RLatLon0.09_PT055H.grib2 2026-04-27 20:56 776K
20260427T18Z_MSC_RDPS_WindV_IsbL-0925_RLatLon0.09_PT055H.grib2 2026-04-27 20:56 786K
20260427T18Z_MSC_RDPS_WindV_IsbL-0950_RLatLon0.09_PT055H.grib2 2026-04-27 20:56 784K
20260427T18Z_MSC_RDPS_WindV_IsbL-0970_RLatLon0.09_PT055H.grib2 2026-04-27 20:56 786K
20260427T18Z_MSC_RDPS_WindV_IsbL-0985_RLatLon0.09_PT055H.grib2 2026-04-27 20:56 782K
20260427T18Z_MSC_RDPS_WindV_IsbL-1000_RLatLon0.09_PT055H.grib2 2026-04-27 20:56 776K
20260427T18Z_MSC_RDPS_WindV_IsbL-1015_RLatLon0.09_PT055H.grib2 2026-04-27 20:56 815K